Track STARLINK-3987 now! 10-day predictions STARLINK-3987 is classified as:
1 52699U 22053AV 22187.25001157 .00101292 00000-0 71893-3 0 9990 2 52699 53.2158 56.2200 0002246 26.6345 333.1195 15.73150569 8007